User: anonymous   Login
Location: Anjeux
(47.8815°N, 6.2076°E)
Time: 23:46:13
(UTC+00:00)
Language:

Cosmos 1782 - Orbit

View from above orbital plane
View from above orbital plane
View from above satellite
View from above satellite

Ground track
Ground track

The orbit data is extracted from the following two-line orbital elements,

1 16986U 86074A   21129.52047118  .00000112  00000-0  53828-5 0  9993
2 16986  82.5054 176.5591 0011894 141.4478 218.7601 15.07526473863891
Epoch (UTC): 09 May 2021 12:29:28
Eccentricity: 0.0011894
inclination: 82.5054°
perigee height: 535 km
apogee height: 552 km
right ascension of ascending node: 176.5591°
argument of perigee: 141.4478°
revolutions per day: 15.07526473
mean anomaly at epoch: 218.7601°
orbit number at epoch: 86389

The dashed part of the orbit path shows where the satellite is in the earth's shadow,  

DLR